Theta_e
315 315 317 319 317 321 321 325 327 329 329 329 330 335 343 342 342 341 339 338 338 339
316 316 317 317 317 317 320 323 326 328 325 327 329 333 338 340 340 340 340 339 338 338
312 315 317 316 316 318 319 320 322 323 324 326 329 330 328 328 335 342 342 342 340 342
313 314 317 318 317 316 315 315 318 322 326 327 326 326 327 327 330 329 336 342 343 343
314 314 313 312 311 311 312 315 317 320 321 322 325 325 323 325 329 331 331 337 343 344
312 311 311 311 311 311 314 313 315 319 319 319 319 319 321 324 325 327 331 334 339 342
309 310 311 311 311 312 312 312 312 312 314 317 317 318 318 320 323 327 331 333 337 343
307 308 310 310 311 313 313 314 314 312 313 315 315 317 317 320 320 320 324 327 332 338
309 310 311 310 310 311 312 312 312 313 314 311 313 307 308 311 317 320 321 321 325 329
309 308 308 310 310 309 308 309 310 310 310 310 311 305 304 306 314 317 318 320 323 326
308 307 307 306 305 305 305 306 306 308 309 310 311 304 303 305 313 316 318 321 324 326
306 305 305 304 303 303 303 305 306 307 308 308 309 303 302 305 315 316 316 320 325 329
306 304 303 303 304 305 305 304 305 305 306 306 306 302 300 304 312 313 315 316 320 316
305 305 305 305 305 304 304 305 305 306 306 307 308 306 300 300 309 311 311 313 319 330
Wind_Speed
8 5 5 5 3 3 2 4 6 5 5 5 7 5 6 4 5 9 8 15 10 9
7 7 7 8 5 4 4 4 7 5 6 6 5 6 4 4 8 8 10 15 14 12
9 8 8 6 7 7 6 4 5 6 6 7 6 5 4 4 5 9 10 10 14 12
8 8 7 7 8 7 5 6 6 5 6 6 6 6 5 6 7 10 10 13 14 14
10 8 8 8 9 8 7 7 7 6 5 6 5 6 6 9 8 10 12 13 14 16
11 10 11 11 9 7 7 7 7 6 6 6 6 7 7 9 10 11 11 13 15 16
9 11 12 11 9 8 9 8 7 7 7 6 6 7 9 13 11 9 10 12 15 16
7 8 8 8 8 9 9 10 11 9 8 8 6 6 9 9 9 11 12 11 13 16
7 7 8 8 8 7 9 9 10 11 11 10 8 11 10 8 10 12 13 12 14 15
8 8 8 8 8 9 10 10 11 11 11 13 11 11 13 13 7 10 13 12 12 14
10 10 8 7 7 7 6 8 8 11 12 13 11 12 13 15 9 9 13 12 14 15
6 6 6 7 7 7 7 10 12 12 14 14 14 13 15 12 9 11 14 12 14 15
6 7 8 9 10 12 14 16 14 16 15 15 14 14 17 15 7 9 10 12 14 17
10 12 14 14 14 13 14 15 15 15 13 15 13 10 16 16 11 9 10 10 10 7
Wind_Direction
203 198 215 230 248 260 249 243 276 273 281 281 287 302 289 281 243 228 235 254 238 240
201 196 205 220 222 232 243 257 263 289 297 284 266 284 322 245 250 237 226 242 241 238
203 198 202 199 213 219 230 239 270 279 280 282 275 261 265 270 264 241 245 241 245 241
209 211 200 196 204 204 214 240 251 249 254 256 271 274 253 259 263 266 262 248 248 243
213 198 192 207 214 206 209 219 231 255 268 271 278 282 291 284 283 279 272 268 255 250
205 199 206 213 215 203 221 232 235 222 226 235 252 268 270 270 272 272 270 271 268 254
213 212 215 217 211 206 213 223 227 236 249 250 254 263 275 280 277 276 280 280 273 259
222 218 212 210 215 216 219 227 229 232 224 218 227 258 268 267 269 279 282 283 290 286
213 204 208 216 219 222 226 229 236 240 238 243 243 247 240 253 274 281 281 287 289 291
205 206 208 211 213 218 221 224 230 236 242 248 245 243 257 254 264 277 281 280 282 284
215 214 206 203 207 216 221 229 234 238 237 241 241 228 241 255 256 259 271 273 272 274
216 222 221 224 227 226 230 241 238 237 238 237 245 221 227 232 248 256 268 270 272 275
231 228 228 230 240 250 254 258 257 255 251 248 251 245 234 221 228 245 267 273 275 268
247 245 246 248 249 250 249 248 247 250 249 249 243 211 210 222 235 242 256 261 269 254